DW7214 Weather Reports


time (UTC)temp
C
wind
direction
speed
KPH
gust
KPH
rain 1hr
cm
rain 24hr
cm
rain mn
cm
humidity
%
barometer
mb
20260509040023 15 236 0.0 3.2 0.00 0.00 0.00 70 1022.2
20260509034539 16 226 1.6 3.2 0.00 0.00 0.00 69 1022.0
20260509033028 17 233 0.0 3.2 0.00 0.00 0.00 67 1021.9
20260509031516 17 248 1.6 3.2 0.00 0.00 0.00 64 1021.9
20260509030021 18 220 1.6 4.8 0.00 0.00 0.00 60 1021.7
20260509024525 19 229 1.6 6.4 0.00 0.00 0.00 58 1021.6
20260509023031 20 224 1.6 6.4 0.00 0.00 0.00 55 1021.6
20260509021512 20 292 1.6 4.8 0.00 0.00 0.00 54 1021.5
20260509020019 19 267 3.2 11.3 0.00 0.00 0.00 54 1021.5
20260509014524 20 294 1.6 4.8 0.00 0.00 0.00 53 1021.5
20260509013008 20 277 1.6 9.7 0.00 0.00 0.00 52 1021.6
20260509011512 20 292 4.8 12.9 0.00 0.00 0.00 51 1021.7
20260509010017 20 218 3.2 16.1 0.00 0.00 0.00 52 1021.9
20260509004504 20 229 3.2 11.3 0.00 0.00 0.00 52 1021.8
20260509003004 20 287 6.4 12.9 0.00 0.00 0.00 51 1021.8
20260509001510 20 338 0.0 8.0 0.00 0.00 0.00 53 1021.8
20260509000016 20 341 3.2 14.5 0.00 0.00 0.00 55 1022.0
20260508234526 19 15 4.8 6.4 0.00 0.00 0.00 54 1022.0
20260508233006 19 342 3.2 6.4 0.00 0.00 0.00 55 1022.1
20260508231509 20 315 0.0 6.4 0.00 0.00 0.00 53 1022.1
20260508230012 19 53 4.8 9.7 0.00 0.00 0.00 54 1022.1
20260508224522 19 139 3.2 8.0 0.00 0.00 0.00 53 1022.0
20260508223004 19 25 1.6 8.0 0.00 0.00 0.00 54 1022.1
20260508221511 18 51 4.8 16.1 0.00 0.00 0.00 58 1022.2
20260508220013 18 112 1.6 11.3 0.00 0.00 0.00 55 1022.3
20260508214523 18 105 4.8 20.9 0.00 0.00 0.00 57 1022.3
20260508213020 18 136 1.6 16.1 0.00 0.00 0.00 55 1022.4
20260508211505 18 53 4.8 17.7 0.00 0.00 0.00 55 1022.4
20260508210011 18 167 3.2 14.5 0.00 0.00 0.00 54 1022.3
20260508204517 17 103 3.2 14.5 0.00 0.00 0.00 58 1022.4
20260508203030 17 121 6.4 17.7 0.00 0.00 0.00 56 1022.4
20260508201522 17 96 6.4 16.1 0.00 0.00 0.00 54 1022.4
20260508200009 17 126 4.8 12.9 0.00 0.00 0.00 56 1022.5
20260508194517 16 90 6.4 16.1 0.00 0.00 0.00 55 1022.5
20260508193019 16 202 4.8 12.9 0.00 0.00 0.00 58 1022.6
20260508191524 16 57 4.8 16.1 0.00 0.00 0.00 56 1022.7
20260508190014 16 201 8.0 16.1 0.00 0.00 0.00 56 1022.8
20260508184522 16 222 4.8 19.3 0.00 0.00 0.00 58 1022.7
20260508183027 15 196 4.8 17.7 0.00 0.00 0.00 60 1022.7
20260508181521 15 230 9.7 20.9 0.00 0.00 0.00 58 1022.6
20260508180026 15 148 6.4 29.0 0.00 0.00 0.00 60 1022.5
20260508174510 15 149 6.4 20.9 0.00 0.00 0.00 61 1022.4
20260508173015 14 112 6.4 19.3 0.00 0.00 0.00 62 1022.4
20260508171518 14 126 6.4 14.5 0.00 0.00 0.00 68 1022.3
20260508170033 13 202 1.6 12.9 0.00 0.00 0.00 70 1022.1
20260508164534 13 105 4.8 12.9 0.00 0.00 0.00 71 1022.2
20260508163015 13 140 1.6 14.5 0.00 0.00 0.00 72 1022.1
20260508161516 12 119 6.4 12.9 0.00 0.00 0.00 75 1022.1
20260508160022 11 135 1.6 11.3 0.00 0.00 0.00 78 1021.8
20260508154504 11 87 3.2 8.0 0.00 0.00 0.00 80 1021.8
20260508153026 10 171 1.6 9.7 0.00 0.00 0.00 83 1021.8
20260508151516 9 344 0.0 3.2 0.00 0.00 0.00 86 1021.6
20260508150021 8 245 1.6 3.2 0.00 0.00 0.00 88 1021.7
20260508144528 8 243 0.0 3.2 0.00 0.00 0.00 88 1021.5
20260508143010 7 243 0.0 3.2 0.00 0.00 0.00 88 1021.4
20260508141513 7 287 0.0 3.2 0.00 0.00 0.00 88 1021.4
20260508140022 7 287 0.0 1.6 0.00 0.00 0.00 88 1021.4
20260508134523 6 241 0.0 4.8 0.00 0.00 0.00 91 1021.2
20260508133010 6 248 0.0 3.2 0.00 0.00 0.00 91 1020.9
20260508131513 6 248 0.0 3.2 0.00 0.00 0.00 90 1020.7
20260508130031 6 248 0.0 1.6 0.00 0.00 0.00 90 1020.5
20260508124521 6 248 0.0 3.2 0.00 0.00 0.00 89 1020.3
20260508123026 6 281 0.0 3.2 0.00 0.00 0.00 89 1020.1
20260508121510 6 204 0.0 3.2 0.00 0.00 0.00 90 1019.9
20260508120012 6 155 0.0 3.2 0.00 0.00 0.00 89 1019.5
20260508114520 6 171 0.0 3.2 0.00 0.00 0.00 87 1019.6
20260508113025 6 282 0.0 3.2 0.00 0.00 0.00 87 1019.4
20260508111511 7 227 0.0 3.2 0.00 0.00 0.00 88 1019.3
20260508110012 7 250 0.0 3.2 0.00 0.00 0.00 87 1018.9
20260508104510 7 233 0.0 3.2 0.00 0.00 0.00 87 1018.7
20260508103012 7 238 0.0 3.2 0.00 0.00 0.00 86 1018.6
20260508101514 7 240 0.0 3.2 0.00 0.00 0.00 85 1018.5
20260508100014 7 174 0.0 3.2 0.00 0.00 0.00 88 1018.5
20260508094511 7 163 0.0 3.2 0.00 0.00 0.00 88 1018.4
20260508093016 7 196 1.6 4.8 0.00 0.00 0.00 88 1018.4
20260508091522 7 122 0.0 3.2 0.00 0.00 0.00 88 1018.2
20260508090016 7 26 0.0 4.8 0.00 0.00 0.00 88 1018.1
20260508084516 7 134 1.6 6.4 0.00 0.00 0.00 88 1018.1
20260508083014 8 115 1.6 4.8 0.00 0.00 0.00 88 1018.0
20260508081517 8 132 0.0 3.2 0.00 0.00 0.00 88 1017.9
20260508080015 8 71 0.0 3.2 0.00 0.00 0.00 87 1017.8
20260508074520 8 78 0.0 3.2 0.00 0.00 0.00 85 1017.8
20260508073016 8 103 1.6 3.2 0.00 0.00 0.00 85 1017.7
20260508071518 9 48 0.0 4.8 0.00 0.00 0.00 84 1017.6
20260508070016 10 126 0.0 3.2 0.00 0.00 0.00 83 1017.6
20260508064525 10 77 0.0 3.2 0.00 0.00 0.00 83 1017.6
20260508063018 10 95 0.0 4.8 0.00 0.00 0.00 82 1017.8
20260508061512 10 111 0.0 3.2 0.00 0.00 0.00 82 1017.7
20260508060012 11 52 0.0 3.2 0.00 0.00 0.00 81 1017.7
20260508054508 11 20 0.0 3.2 0.00 0.00 0.00 79 1017.7
20260508053014 11 360 1.6 3.2 0.00 0.00 0.00 77 1017.7
20260508051511 12 134 0.0 3.2 0.00 0.00 0.00 74 1017.7
20260508050015 13 111 1.6 4.8 0.00 0.00 0.00 72 1017.6
20260508044506 13 49 0.0 3.2 0.00 0.00 0.00 71 1017.5
20260508043012 13 107 0.0 3.2 0.00 0.00 0.00 71 1017.5
20260508041513 14 136 1.6 4.8 0.00 0.00 0.00 68 1017.4